[[{"header":{"parameterUnit":"m.s-1","parameterCategory":2,"la1":30.2991,"la2":30.254,"lo1":-89.0895,"lo2":-89.0444,"dy":0.0017,"dx":0.0017,"nx":28,"ny":28,"refTime":"2023-08-28T09:00:00:Z","depth":"0","parameterNumber":2,"parameterNumberName":"U-component_of_CURRENTS"},"data":[0,0,0,0,0,0,0,0,0,0,0,0,0,0,0,0,0,0,0,0,0,0,0,0,0,0,0,0,0,0,0,0,0,0,0,0,0,0,0,0,0,0,0,0,0,0,0,0,0,0,0,0,0,0,0,0,0,0,-0.2572,-0.2573,0,-0.2717,-0.272,-0.2722,-0.2749,-0.2747,-0.2745,-0.2743,-0.2864,-0.2868,-0.2873,0,0,0,0,0,0,0,0,0,0,0,0,0,-0.2453,-0.2455,-0.2572,-0.2573,-0.2574,-0.2717,-0.272,-0.2723,-0.2749,-0.2747,-0.2744,-0.2742,-0.2862,-0.2868,-0.2874,0,0,0,0,0,0,0,0,0,0,0,0,0,-0.2551,-0.2456,-0.2572,-0.2598,-0.2601,-0.2716,-0.272,-0.2724,-0.275,-0.2747,-0.2744,-0.2741,-0.286,-0.2867,-0.2875,-0.2982,0,0,-0.2898,-0.2901,0,0,0,0,0,0,0,0,-0.2545,-0.2556,-0.2593,-0.2596,-0.26,-0.2704,-0.2722,-0.2806,-0.275,-0.2703,-0.2743,-0.2739,-0.2804,-0.2816,-0.2864,-0.2988,-0.2993,-0.2899,-0.2903,-0.2907,-0.2909,0,0,0,0,0,0,0,-0.2538,-0.2551,-0.2639,-0.2594,-0.2598,-0.2648,-0.2658,-0.2739,-0.2775,-0.2707,-0.2707,-0.271,-0.2807,-0.2856,-0.2866,-0.2995,-0.2899,-0.2905,-0.291,-0.2913,-0.3165,-0.3167,0,0,0,0,0,0,-0.2499,-0.2544,-0.2634,-0.2642,-0.2554,-0.2651,-0.2663,-0.2681,-0.2775,-0.2784,-0.2712,-0.271,-0.2845,-0.2857,-0.287,-0.2964,-0.2907,-0.2914,-0.2918,-0.3163,-0.3166,-0.3168,0,0,0,0,0,0,-0.2496,-0.2506,-0.2628,-0.2588,-0.2606,-0.2655,-0.2676,-0.2685,-0.2717,-0.2777,-0.2787,-0.2729,-0.2843,-0.286,-0.2951,-0.2969,-0.2917,-0.2924,-0.316,-0.3164,-0.3167,-0.3175,0,0,0,0,0,0,-0.2492,-0.2505,-0.2515,-0.2586,-0.2606,-0.2688,-0.2678,-0.269,-0.272,-0.2719,-0.2796,-0.2805,-0.2842,-0.294,-0.2958,-0.2979,-0.293,-0.3158,-0.3162,-0.3166,-0.3172,-0.3178,-0.3183,0,0,0,0,0,-0.2488,-0.2513,-0.2515,-0.2526,-0.2615,-0.2688,-0.2706,-0.2736,-0.2723,-0.2751,-0.281,-0.2802,-0.2976,-0.2949,-0.297,-0.2993,-0.3156,-0.3161,-0.3165,-0.317,-0.3177,-0.3183,0,0,0,0,0,0,-0.2469,-0.2519,-0.2523,-0.2561,-0.2611,-0.2688,-0.2715,-0.2735,-0.281,-0.2802,-0.2853,-0.287,-0.2948,-0.2983,-0.2951,-0.3077,-0.3056,-0.3066,-0.3052,-0.306,-0.3065,-0.3049,-0.2936,0,0,0,0,0,-0.2467,-0.2496,-0.255,-0.258,-0.2599,-0.2657,-0.2689,-0.2711,-0.2777,-0.2804,-0.2864,-0.2925,-0.2994,-0.3032,-0.3099,-0.319,-0.3168,-0.3212,-0.3217,-0.3222,-0.3225,-0.3219,-0.3223,-0.3183,-0.3183,-0.3183,0,0,-0.2465,-0.2496,-0.2511,-0.2577,-0.2616,-0.2668,-0.2671,-0.2718,-0.2775,-0.2809,-0.2909,-0.2951,-0.3023,-0.3113,-0.315,-0.314,-0.3218,-0.3228,-0.3231,-0.3231,-0.3224,-0.3228,-0.3231,-0.3187,-0.3186,-0.3186,0,0,-0.2472,-0.2503,-0.2524,-0.2568,-0.2617,-0.2672,-0.2677,-0.2757,-0.2802,-0.2905,-0.2932,-0.299,-0.3112,-0.3163,-0.3203,-0.3287,-0.3245,-0.3296,-0.332,-0.3315,-0.3317,-0.3319,-0.3267,-0.3264,-0.3302,-0.3302,-0.3302,0,-0.2463,-0.2507,-0.2544,-0.2576,-0.2622,-0.2666,-0.2715,-0.2784,-0.2888,-0.2941,-0.2928,-0.3088,-0.3137,-0.3239,-0.3263,-0.3296,-0.3267,-0.3284,-0.3318,-0.3319,-0.3321,-0.3268,-0.3264,-0.3303,-0.3303,-0.3303,-0.3303,0,-0.2482,-0.2525,-0.2544,-0.2607,-0.2665,-0.2718,-0.28,-0.2874,-0.2926,-0.2986,-0.3088,-0.3156,-0.3242,-0.3262,-0.3295,-0.3344,-0.3307,-0.3316,-0.3288,-0.3324,-0.3267,-0.3263,-0.3305,-0.3304,-0.3304,-0.3304,0,0,-0.2452,-0.2541,-0.2549,-0.2598,-0.2691,-0.2751,-0.2852,-0.2971,-0.3041,-0.3112,-0.3193,-0.3295,-0.3298,-0.3344,-0.3371,-0.3371,-0.3349,-0.3348,-0.3347,-0.3274,-0.3293,-0.3192,-0.3177,-0.3352,-0.3353,-0.3353,-0.3236,0,-0.2462,-0.253,-0.2586,-0.2687,-0.2741,-0.2834,-0.2941,-0.3046,-0.3127,-0.3219,-0.3263,-0.334,-0.334,-0.3366,-0.337,-0.3366,-0.3344,-0.3377,-0.329,-0.3287,-0.3174,-0.3173,-0.305,-0.293,-0.3232,-0.3231,-0.3231,0,-0.2464,-0.2521,-0.2599,-0.2757,-0.2792,-0.286,-0.3035,-0.3133,-0.3256,-0.3313,-0.3364,-0.3392,-0.3427,-0.3402,-0.3377,-0.3392,-0.3344,-0.3315,-0.331,-0.3213,-0.318,-0.2952,-0.2911,-0.2892,-0.3225,-0.3225,-0.3225,0,-0.2428,-0.255,-0.2621,-0.2663,-0.2825,-0.2898,-0.3002,-0.3146,-0.3225,-0.3342,-0.3364,-0.3428,-0.3415,-0.3398,-0.3339,-0.3359,-0.3264,-0.3289,-0.3143,-0.3133,-0.3011,-0.2991,-0.2923,-0.3248,-0.3248,-0.3249,-0.3249,0,-0.2431,-0.2493,-0.2605,-0.2642,-0.2758,-0.2881,-0.2999,-0.3119,-0.3231,-0.3274,-0.3379,-0.3377,-0.3407,-0.3361,-0.333,-0.3201,-0.3251,-0.3132,-0.3102,-0.3009,-0.2991,-0.2955,-0.2987,-0.3244,-0.3245,-0.3246,-0.3247,0,-0.2373,-0.2444,-0.2531,-0.2684,-0.273,-0.2807,-0.296,-0.3022,-0.3156,-0.3195,-0.3216,-0.3303,-0.3249,-0.3245,-0.319,-0.3146,-0.3006,-0.3011,-0.2874,-0.283,-0.2696,-0.2733,-0.2611,-0.2536,-0.2844,-0.2841,-0.2839,0,-0.2347,-0.2374,-0.2509,-0.2535,-0.2593,-0.2707,-0.2763,-0.2947,-0.2987,-0.3116,-0.3097,-0.3103,-0.3066,-0.2967,-0.2908,-0.2822,-0.2835,-0.2657,-0.2694,-0.2654,-0.2675,-0.2694,-0.2642,-0.2522,-0.2517,-0.2512,-0.2509,0,-0.2283,-0.2317,-0.2374,-0.2419,-0.2469,-0.2544,-0.2633,-0.2659,-0.2827,-0.2862,-0.287,-0.2866,-0.2804,-0.2685,-0.2605,-0.2546,-0.2591,-0.2568,-0.2574,-0.2449,-0.2419,-0.2342,-0.2614,-0.2473,-0.2476,-0.2479,-0.2481,-0.2482,-0.2202,-0.2214,-0.2252,-0.2287,-0.2332,-0.2343,-0.234,-0.2418,-0.2456,-0.2476,-0.2572,-0.2536,-0.2514,-0.2399,-0.2338,-0.2216,-0.2294,-0.2174,-0.2226,-0.225,-0.2172,-0.234,-0.2147,-0.2149,-0.215,-0.2151,-0.2153,0,-0.208,-0.2085,-0.2109,-0.2131,-0.2092,-0.2178,-0.2206,-0.2161,-0.2116,-0.2197,-0.2187,-0.2195,-0.2095,-0.2106,-0.2017,-0.1926,-0.1892,-0.1884,-0.1906,-0.1874,-0.2044,-0.2025,-0.174,-0.174,-0.174,-0.174,-0.174,-0.174,-0.201,-0.1964,-0.1972,-0.1863,-0.1865,-0.1767,-0.174,-0.1705,-0.1738,-0.1714,-0.1766,-0.1872,-0.1912,-0.2025,-0.1906,-0.1804,-0.1773,-0.1685,-0.1733,-0.1899,-0.1932,-0.1964,-0.1953,-0.1657,-0.1657,-0.148,-0.1479,-0.1478]},{"header":{"parameterUnit":"m.s-1","parameterCategory":2,"la1":30.2991,"la2":30.254,"lo1":-89.0895,"lo2":-89.0444,"dy":0.0017,"dx":0.0017,"nx":28,"ny":28,"refTime":"2023-08-28T09:00:00:Z","depth":"0","parameterNumber":3,"parameterNumberName":"V-component_of_CURRENTS"},"data":[0,0,0,0,0,0,0,0,0,0,0,0,0,0,0,0,0,0,0,0,0,0,0,0,0,0,0,0,0,0,0,0,0,0,0,0,0,0,0,0,0,0,0,0,0,0,0,0,0,0,0,0,0,0,0,0,0,0,-0.0277,-0.0276,0,-0.0233,-0.0233,-0.0232,-0.0196,-0.0196,-0.0196,-0.0195,-0.0106,-0.0104,-0.0102,0,0,0,0,0,0,0,0,0,0,0,0,0,-0.0307,-0.0307,-0.0277,-0.0276,-0.0276,-0.0233,-0.0233,-0.0232,-0.0197,-0.0196,-0.0195,-0.0195,-0.0106,-0.0104,-0.0102,0,0,0,0,0,0,0,0,0,0,0,0,0,-0.0282,-0.0307,-0.0277,-0.0252,-0.025,-0.0233,-0.0233,-0.0232,-0.0197,-0.0196,-0.0195,-0.0195,-0.0107,-0.0104,-0.0101,-0.0096,0,0,-0.0092,-0.0091,0,0,0,0,0,0,0,0,-0.0284,-0.0281,-0.0256,-0.0254,-0.0251,-0.0219,-0.021,-0.0184,-0.0197,-0.0218,-0.0195,-0.0194,-0.0139,-0.0134,-0.0129,-0.0092,-0.0088,-0.0092,-0.009,-0.0089,-0.0088,0,0,0,0,0,0,0,-0.0286,-0.0283,-0.026,-0.0256,-0.0252,-0.0235,-0.0232,-0.0205,-0.0182,-0.0216,-0.0213,-0.0207,-0.0138,-0.0132,-0.0126,-0.0087,-0.0092,-0.009,-0.0088,-0.0087,-0.0011,-0.0011,0,0,0,0,0,0,-0.0291,-0.0285,-0.0262,-0.0259,-0.0265,-0.0236,-0.0231,-0.023,-0.0184,-0.0176,-0.0208,-0.0205,-0.0137,-0.013,-0.0123,-0.0112,-0.0089,-0.0086,-0.0085,-0.0011,-0.0011,-0.0011,0,0,0,0,0,0,-0.0292,-0.029,-0.0263,-0.027,-0.0265,-0.0236,-0.0235,-0.023,-0.0225,-0.0178,-0.0169,-0.0208,-0.0136,-0.0127,-0.01,-0.0108,-0.0085,-0.0082,-0.0012,-0.0011,-0.0011,-0.009,0,0,0,0,0,0,-0.0294,-0.0291,-0.0298,-0.027,-0.0265,-0.0262,-0.0236,-0.023,-0.0222,-0.0219,-0.0176,-0.0167,-0.0135,-0.0104,-0.0097,-0.0103,-0.008,-0.0012,-0.0011,-0.0011,-0.0088,-0.0093,-0.0097,0,0,0,0,0,-0.0295,-0.0313,-0.0299,-0.0296,-0.0274,-0.0262,-0.0258,-0.0235,-0.0223,-0.0227,-0.0193,-0.0168,-0.0096,-0.0102,-0.0093,-0.0099,-0.0012,-0.0012,-0.0011,-0.0086,-0.0092,-0.0097,0,0,0,0,0,0,-0.0334,-0.031,-0.0294,-0.0305,-0.0285,-0.0256,-0.0259,-0.0242,-0.022,-0.0215,-0.017,-0.0159,-0.0135,-0.0104,-0.0112,-0.0073,-0.0048,-0.0046,-0.0108,-0.0113,-0.0117,-0.0141,-0.0078,0,0,0,0,0,-0.0345,-0.0348,-0.032,-0.0327,-0.0319,-0.029,-0.0283,-0.0267,-0.0241,-0.0231,-0.0202,-0.0162,-0.0127,-0.011,-0.0076,-0.0061,-0.0025,-0.0055,-0.0059,-0.0064,-0.0075,-0.004,-0.0043,-0.0009,-0.0009,-0.0009,0,0,-0.0362,-0.0348,-0.0351,-0.0335,-0.0317,-0.0325,-0.0285,-0.0279,-0.0286,-0.0224,-0.0225,-0.0179,-0.0125,-0.0105,-0.0091,-0.0081,-0.0047,-0.0063,-0.0067,-0.0076,-0.004,-0.0044,-0.0047,-0.0009,-0.0009,-0.0009,0,0,-0.0399,-0.0385,-0.0399,-0.0389,-0.0367,-0.0353,-0.0354,-0.0329,-0.0316,-0.0305,-0.0257,-0.0218,-0.0176,-0.0138,-0.0112,-0.0119,-0.0071,-0.0103,-0.0149,-0.0116,-0.0119,-0.0121,-0.0058,-0.0054,-0.0107,-0.0107,-0.0108,0,-0.0422,-0.0438,-0.0402,-0.0413,-0.042,-0.0372,-0.0398,-0.0377,-0.0348,-0.0341,-0.0315,-0.0243,-0.0193,-0.0164,-0.0159,-0.0131,-0.0096,-0.0139,-0.0124,-0.0126,-0.0127,-0.0062,-0.0057,-0.0111,-0.0111,-0.011,-0.011,0,-0.0465,-0.0482,-0.0491,-0.0493,-0.0494,-0.0507,-0.0478,-0.0474,-0.0451,-0.0425,-0.0391,-0.0318,-0.0278,-0.0246,-0.0203,-0.0183,-0.0149,-0.0135,-0.0119,-0.0136,-0.0065,-0.0058,-0.0117,-0.0115,-0.0114,-0.0113,0,0,-0.0514,-0.0523,-0.0528,-0.0554,-0.0543,-0.0554,-0.0562,-0.0559,-0.0565,-0.0514,-0.0514,-0.0432,-0.0385,-0.0351,-0.0286,-0.0245,-0.0203,-0.02,-0.0196,-0.0151,-0.011,-0.0037,-0.0021,-0.0196,-0.0195,-0.0195,-0.005,0,-0.0564,-0.0616,-0.0604,-0.0666,-0.0698,-0.0669,-0.0688,-0.0673,-0.0635,-0.0617,-0.0529,-0.0496,-0.0427,-0.0401,-0.0352,-0.0237,-0.0193,-0.0242,-0.0088,-0.0083,-0.0028,-0.0014,0.0016,0.015,-0.0043,-0.0042,-0.0041,0,-0.0617,-0.0649,-0.0716,-0.0771,-0.0782,-0.0807,-0.083,-0.0835,-0.0781,-0.0748,-0.069,-0.0617,-0.0533,-0.0479,-0.0314,-0.035,-0.0246,-0.0155,-0.0147,-0.0051,0.0002,0.0134,0.017,0.0316,-0.003,-0.0031,-0.0032,0,-0.0682,-0.0738,-0.0801,-0.0816,-0.0855,-0.0882,-0.0902,-0.0875,-0.0875,-0.0821,-0.0793,-0.0701,-0.062,-0.051,-0.0303,-0.032,-0.0108,-0.0109,0.0056,0.0064,0.0135,0.0148,0.0315,-0.0015,-0.0015,-0.0016,-0.0016,0,-0.0753,-0.0805,-0.0837,-0.0871,-0.0958,-0.0952,-0.1008,-0.1003,-0.0969,-0.0956,-0.0861,-0.0801,-0.0625,-0.0473,-0.0328,-0.0091,-0.0126,0.0056,0.0102,0.0113,0.0122,0.0288,0.0344,-0.001,-0.0011,-0.0012,-0.0013,0,-0.0816,-0.083,-0.0914,-0.0969,-0.0988,-0.1049,-0.1086,-0.1107,-0.1061,-0.1032,-0.1017,-0.0856,-0.0652,-0.0453,-0.0222,-0.0089,0.0207,0.0186,0.0209,0.0255,0.0514,0.0564,0.0787,0.088,0.0369,0.0372,0.0374,0,-0.0854,-0.0896,-0.0984,-0.1035,-0.1062,-0.1132,-0.117,-0.1161,-0.1157,-0.1051,-0.1028,-0.0828,-0.0667,-0.0284,-0.0024,0.0245,0.035,0.0428,0.0392,0.0545,0.0634,0.0668,0.0731,0.0471,0.0473,0.0476,0.0477,0,-0.0928,-0.0951,-0.1018,-0.1116,-0.1176,-0.1245,-0.1281,-0.1287,-0.1242,-0.1181,-0.1038,-0.0902,-0.0513,-0.0168,0.0194,0.0343,0.0541,0.0484,0.0627,0.0718,0.078,0.0886,0.038,0.0498,0.0496,0.0494,0.0493,0.0492,-0.0974,-0.1044,-0.1114,-0.1208,-0.1275,-0.1326,-0.1355,-0.1342,-0.1315,-0.1187,-0.1048,-0.0807,-0.0306,0.0216,0.0408,0.0798,0.0743,0.0881,0.093,0.0952,0.1035,0.0591,0.0764,0.0763,0.0763,0.0762,0.0762,0,-0.103,-0.1098,-0.1194,-0.1298,-0.1362,-0.1377,-0.1402,-0.138,-0.1312,-0.1165,-0.0995,-0.0475,0.0019,0.0465,0.104,0.1234,0.1258,0.1309,0.135,0.1393,0.0994,0.099,0.1237,0.1237,0.1236,0.1236,0.1236,0.1236,-0.1063,-0.1161,-0.1213,-0.1333,-0.1391,-0.1431,-0.1429,-0.1361,-0.1249,-0.0964,-0.0686,-0.0464,0.0178,0.1111,0.1621,0.1645,0.1799,0.1769,0.1866,0.1569,0.1531,0.1496,0.1506,0.1857,0.1857,0.2242,0.2246,0.2249]}],[{"header":{"parameterUnit":"m.s-1","parameterCategory":2,"la1":30.2991,"la2":30.254,"lo1":-89.0895,"lo2":-89.0444,"dy":0.0017,"dx":0.0017,"nx":28,"ny":28,"refTime":"2023-08-28T09:00:00:Z","depth":"2","parameterNumber":2,"parameterNumberName":"U-component_of_CURRENTS"},"data":[0,0,0,0,0,0,0,0,0,0,0,0,0,0,0,0,0,0,0,0,0,0,0,0,0,0,0,0,0,0,0,0,0,0,0,0,0,0,0,0,0,0,0,0,0,0,0,0,0,0,0,0,0,0,0,0,0,0,-0.2324,-0.2325,0,-0.2363,-0.2363,-0.2363,-0.2343,-0.2342,-0.2342,-0.2341,-0.2387,-0.2389,-0.2391,0,0,0,0,0,0,0,0,0,0,0,0,0,-0.2224,-0.2226,-0.2324,-0.2325,-0.2326,-0.2363,-0.2363,-0.2363,-0.2343,-0.2342,-0.2341,-0.234,-0.2387,-0.2389,-0.2392,0,0,0,0,0,0,0,0,0,0,0,0,0,-0.2264,-0.2227,-0.2324,-0.2322,-0.2322,-0.2363,-0.2363,-0.2363,-0.2344,-0.2342,-0.2341,-0.234,-0.2386,-0.2389,-0.2392,-0.2436,0,0,-0.2401,-0.2402,0,0,0,0,0,0,0,0,-0.2262,-0.2267,-0.2321,-0.2322,-0.2322,-0.2349,-0.2345,-0.2389,-0.2344,-0.2333,-0.2341,-0.2339,-0.2378,-0.2381,-0.2388,-0.2438,-0.244,-0.2401,-0.2403,-0.2405,-0.2405,0,0,0,0,0,0,0,-0.2259,-0.2265,-0.2337,-0.2322,-0.2323,-0.2316,-0.232,-0.2353,-0.236,-0.2334,-0.2333,-0.2341,-0.2377,-0.2385,-0.2389,-0.244,-0.2401,-0.2404,-0.2406,-0.2407,-0.262,-0.2624,0,0,0,0,0,0,-0.2261,-0.2263,-0.2336,-0.2339,-0.2291,-0.2319,-0.2323,-0.234,-0.236,-0.2362,-0.2342,-0.234,-0.2381,-0.2386,-0.2391,-0.2449,-0.2405,-0.2407,-0.2409,-0.2617,-0.2621,-0.2625,0,0,0,0,0,0,-0.2259,-0.2267,-0.2335,-0.2303,-0.2311,-0.2322,-0.2341,-0.2341,-0.235,-0.2366,-0.2368,-0.2351,-0.238,-0.2386,-0.2439,-0.2451,-0.2409,-0.2411,-0.2612,-0.2618,-0.2623,-0.2563,0,0,0,0,0,0,-0.2256,-0.2267,-0.2276,-0.2303,-0.2313,-0.2364,-0.2342,-0.2343,-0.2358,-0.2356,-0.2375,-0.2377,-0.2379,-0.2434,-0.2442,-0.2454,-0.2414,-0.2607,-0.2615,-0.2621,-0.256,-0.2566,-0.2571,0,0,0,0,0,-0.2252,-0.2275,-0.2277,-0.2285,-0.2327,-0.2366,-0.237,-0.2371,-0.236,-0.2373,-0.2394,-0.2377,-0.2486,-0.2439,-0.2447,-0.246,-0.2604,-0.2613,-0.2621,-0.2558,-0.2565,-0.2571,0,0,0,0,0,0,-0.2234,-0.2276,-0.2278,-0.2311,-0.2338,-0.2363,-0.2374,-0.2379,-0.2405,-0.2402,-0.241,-0.2417,-0.2464,-0.25,-0.2447,-0.2558,-0.255,-0.256,-0.25,-0.2507,-0.2512,-0.2486,-0.2416,0,0,0,0,0,-0.2237,-0.2264,-0.23,-0.2324,-0.2339,-0.2358,-0.2372,-0.2379,-0.2406,-0.2415,-0.243,-0.2471,-0.2511,-0.2534,-0.2573,-0.263,-0.2629,-0.2659,-0.2665,-0.2668,-0.2663,-0.2682,-0.2685,-0.2654,-0.2654,-0.2654,0,0,-0.2235,-0.2262,-0.2276,-0.2322,-0.2339,-0.237,-0.2363,-0.2391,-0.2416,-0.2419,-0.2455,-0.2478,-0.2533,-0.2584,-0.2612,-0.261,-0.268,-0.2679,-0.268,-0.2674,-0.269,-0.2692,-0.2694,-0.266,-0.2659,-0.2658,0,0,-0.2242,-0.2271,-0.2291,-0.2321,-0.2358,-0.238,-0.2392,-0.2425,-0.2435,-0.2486,-0.2492,-0.2517,-0.2599,-0.2613,-0.264,-0.2713,-0.27,-0.2756,-0.2757,-0.2775,-0.2775,-0.2775,-0.276,-0.2759,-0.2766,-0.2766,-0.2765,0,-0.2235,-0.2275,-0.2302,-0.2331,-0.2362,-0.2387,-0.242,-0.2443,-0.2487,-0.2505,-0.25,-0.2588,-0.2604,-0.2657,-0.2678,-0.2711,-0.2724,-0.2705,-0.2771,-0.2772,-0.2773,-0.2758,-0.2757,-0.2764,-0.2764,-0.2764,-0.2764,0,-0.2253,-0.2292,-0.231,-0.2359,-0.2393,-0.2432,-0.2472,-0.2502,-0.2522,-0.254,-0.259,-0.261,-0.2662,-0.2678,-0.2692,-0.273,-0.2736,-0.2755,-0.2725,-0.277,-0.2754,-0.2754,-0.2761,-0.2762,-0.2762,-0.2763,0,0,-0.2227,-0.2308,-0.2315,-0.2351,-0.2417,-0.2451,-0.2498,-0.2553,-0.2584,-0.2608,-0.2646,-0.2679,-0.2677,-0.271,-0.2726,-0.2733,-0.2722,-0.2752,-0.2754,-0.2684,-0.2749,-0.2661,-0.2653,-0.2757,-0.2757,-0.2758,-0.2725,0,-0.2235,-0.2295,-0.2338,-0.2408,-0.2449,-0.2501,-0.2547,-0.2594,-0.2632,-0.2674,-0.268,-0.2724,-0.2699,-0.2722,-0.2721,-0.274,-0.2728,-0.2728,-0.2764,-0.2764,-0.2635,-0.2652,-0.2459,-0.2407,-0.2726,-0.2726,-0.2726,0,-0.2237,-0.2285,-0.2347,-0.2449,-0.2471,-0.2512,-0.2598,-0.2645,-0.2703,-0.2732,-0.2755,-0.2773,-0.2784,-0.2762,-0.2762,-0.2774,-0.2754,-0.2746,-0.2746,-0.2682,-0.2677,-0.2426,-0.2396,-0.2726,-0.2726,-0.2726,-0.2726,0,-0.2201,-0.2298,-0.2352,-0.2385,-0.2489,-0.2526,-0.2583,-0.2651,-0.2695,-0.2765,-0.2796,-0.2818,-0.2828,-0.2822,-0.2784,-0.2795,-0.2772,-0.2788,-0.2676,-0.2669,-0.2519,-0.2497,-0.2769,-0.2769,-0.2769,-0.2769,-0.277,0,-0.2202,-0.2246,-0.234,-0.2369,-0.2439,-0.2515,-0.2583,-0.2644,-0.2719,-0.2751,-0.2814,-0.2824,-0.2847,-0.2834,-0.2804,-0.2725,-0.2783,-0.2661,-0.2655,-0.2496,-0.2474,-0.2775,-0.2777,-0.2768,-0.2768,-0.2769,-0.2769,0,-0.2151,-0.2215,-0.2282,-0.2388,-0.2421,-0.2467,-0.2577,-0.2607,-0.2705,-0.2747,-0.277,-0.2835,-0.2814,-0.2806,-0.2786,-0.2731,-0.2684,-0.2636,-0.2427,-0.2395,-0.2564,-0.2564,-0.2522,-0.2519,-0.2516,-0.2514,-0.2512,0,-0.2129,-0.2154,-0.2266,-0.2289,-0.2335,-0.2414,-0.2445,-0.2572,-0.2601,-0.2721,-0.2715,-0.2751,-0.271,-0.2658,-0.2584,-0.2507,-0.2586,-0.229,-0.2265,-0.2541,-0.2539,-0.2544,-0.2547,-0.2041,-0.2035,-0.203,-0.2026,0,-0.2072,-0.2107,-0.2152,-0.2201,-0.2242,-0.2299,-0.236,-0.2389,-0.2507,-0.2549,-0.2565,-0.2559,-0.2525,-0.2363,-0.2293,-0.2224,-0.2295,-0.2192,-0.2537,-0.2138,-0.2085,-0.2085,-0.2104,-0.1985,-0.1989,-0.1992,-0.1994,-0.1996,-0.2003,-0.2014,-0.2053,-0.2085,-0.2128,-0.2136,-0.2123,-0.2184,-0.2211,-0.2223,-0.2321,-0.2255,-0.2247,-0.2042,-0.1937,-0.1872,-0.2027,-0.194,-0.1955,-0.1975,-0.193,-0.1876,-0.1726,-0.1729,-0.1731,-0.1733,-0.1734,0,-0.1892,-0.1899,-0.1924,-0.1944,-0.1913,-0.199,-0.201,-0.1959,-0.1911,-0.1967,-0.1951,-0.1773,-0.1675,-0.1687,-0.1523,-0.1491,-0.1483,-0.1429,-0.1421,-0.1462,-0.1499,-0.1431,-0.1094,-0.1092,-0.109,-0.1089,0,0,-0.1828,-0.179,-0.1795,-0.17,-0.1706,-0.1616,-0.1588,-0.1548,-0.1555,-0.1486,-0.1466,-0.1578,-0.1638,-0.1368,-0.13,-0.1175,-0.1306,-0.1115,-0.1627,-0.1659,-0.1693,-0.1789,-0.173,0,0,0,0,0]},{"header":{"parameterUnit":"m.s-1","parameterCategory":2,"la1":30.2991,"la2":30.254,"lo1":-89.0895,"lo2":-89.0444,"dy":0.0017,"dx":0.0017,"nx":28,"ny":28,"refTime":"2023-08-28T09:00:00:Z","depth":"2","parameterNumber":3,"parameterNumberName":"V-component_of_CURRENTS"},"data":[0,0,0,0,0,0,0,0,0,0,0,0,0,0,0,0,0,0,0,0,0,0,0,0,0,0,0,0,0,0,0,0,0,0,0,0,0,0,0,0,0,0,0,0,0,0,0,0,0,0,0,0,0,0,0,0,0,0,-0.0164,-0.0163,0,-0.0102,-0.0101,-0.01,-0.0055,-0.0055,-0.0055,-0.0054,0.0065,0.0068,0.0071,0,0,0,0,0,0,0,0,0,0,0,0,0,-0.0188,-0.0188,-0.0164,-0.0163,-0.0163,-0.0102,-0.0101,-0.01,-0.0055,-0.0055,-0.0055,-0.0054,0.0064,0.0068,0.0071,0,0,0,0,0,0,0,0,0,0,0,0,0,-0.0156,-0.0188,-0.0164,-0.0134,-0.0131,-0.0102,-0.0101,-0.0099,-0.0055,-0.0055,-0.0054,-0.0054,0.0063,0.0067,0.0072,0.0093,0,0,0.0085,0.0087,0,0,0,0,0,0,0,0,-0.0158,-0.0155,-0.0139,-0.0136,-0.0133,-0.0087,-0.0066,-0.0033,-0.0055,-0.0082,-0.0054,-0.0054,0.0018,0.0026,0.0039,0.0098,0.0104,0.0086,0.0088,0.009,0.0092,0,0,0,0,0,0,0,-0.016,-0.0157,-0.0137,-0.0139,-0.0135,-0.0105,-0.01,-0.0059,-0.0032,-0.008,-0.0077,-0.0073,0.0021,0.0034,0.0042,0.0105,0.0086,0.009,0.0092,0.0094,0.0198,0.0198,0,0,0,0,0,0,-0.0175,-0.0159,-0.0139,-0.0136,-0.0147,-0.0105,-0.01,-0.0101,-0.0034,-0.0024,-0.0073,-0.0071,0.0027,0.0037,0.0047,0.0068,0.009,0.0094,0.0097,0.0198,0.0198,0.0198,0,0,0,0,0,0,-0.0175,-0.0174,-0.0142,-0.0147,-0.0141,-0.0106,-0.0107,-0.01,-0.0091,-0.003,-0.0019,-0.0073,0.0027,0.004,0.0077,0.0073,0.0096,0.0101,0.0197,0.0198,0.0198,0.0115,0,0,0,0,0,0,-0.0176,-0.0174,-0.0182,-0.0148,-0.0141,-0.0136,-0.0107,-0.0099,-0.009,-0.0087,-0.0026,-0.0014,0.0028,0.007,0.0081,0.008,0.0104,0.0197,0.0198,0.0198,0.0118,0.0113,0.0108,0,0,0,0,0,-0.0178,-0.0196,-0.0183,-0.0181,-0.0153,-0.0137,-0.0131,-0.0102,-0.0091,-0.0093,-0.0049,-0.0016,0.0079,0.0073,0.0087,0.0086,0.0197,0.0197,0.0198,0.012,0.0114,0.0108,0,0,0,0,0,0,-0.0213,-0.0192,-0.0177,-0.0189,-0.0168,-0.013,-0.013,-0.0111,-0.008,-0.0075,-0.0017,-0.0002,0.0027,0.007,0.0062,0.0118,0.0145,0.0148,0.0081,0.0076,0.0071,0.0058,0.0108,0,0,0,0,0,-0.0225,-0.023,-0.0202,-0.021,-0.0202,-0.0167,-0.0158,-0.014,-0.0108,-0.0094,-0.0052,-0.0002,0.004,0.0066,0.0107,0.0138,0.0178,0.0149,0.0144,0.0139,0.0139,0.0188,0.0187,0.0198,0.0198,0.0198,0,0,-0.0242,-0.0229,-0.0233,-0.0217,-0.0196,-0.0198,-0.0161,-0.0154,-0.0151,-0.0085,-0.0067,-0.0023,0.0042,0.0074,0.0092,0.0109,0.0156,0.0139,0.0135,0.0137,0.0188,0.0187,0.0186,0.0198,0.0198,0.0198,0,0,-0.0276,-0.0265,-0.0279,-0.0268,-0.0247,-0.0227,-0.023,-0.0198,-0.0178,-0.0156,-0.0107,-0.0063,-0.0005,0.0045,0.0078,0.0074,0.0123,0.0084,0.0055,0.0102,0.0101,0.0101,0.0142,0.0147,0.0088,0.0088,0.0087,0,-0.0297,-0.0312,-0.0281,-0.0291,-0.0292,-0.0246,-0.0266,-0.0236,-0.0196,-0.0177,-0.0161,-0.0066,-0.0015,0.0038,0.0035,0.0063,0.0091,0.0068,0.0094,0.0095,0.0096,0.0139,0.0144,0.0084,0.0084,0.0084,0.0085,0,-0.0337,-0.0353,-0.0361,-0.0359,-0.0354,-0.0364,-0.0327,-0.031,-0.0282,-0.0246,-0.0195,-0.0122,-0.0063,-0.004,-0.0004,0.0033,0.0051,0.0074,0.0103,0.0089,0.0136,0.0143,0.0078,0.0079,0.0081,0.0082,0,0,-0.0384,-0.039,-0.0395,-0.0413,-0.0397,-0.0401,-0.0388,-0.0362,-0.0347,-0.0293,-0.0266,-0.0187,-0.0141,-0.01,-0.0042,0.0003,0.0035,0.0033,0.0037,0.0063,0.0129,0.0172,0.0185,0.0054,0.0055,0.0056,0.0155,0,-0.0428,-0.0473,-0.0458,-0.0504,-0.0529,-0.0488,-0.048,-0.0444,-0.0396,-0.0354,-0.0261,-0.0218,-0.0164,-0.0139,-0.0083,0.0005,0.0051,0.0006,0.0149,0.0154,0.0184,0.0194,0.0169,0.0258,0.0162,0.0163,0.0164,0,-0.0477,-0.0503,-0.0557,-0.0584,-0.0589,-0.0603,-0.0585,-0.0571,-0.0485,-0.0443,-0.0369,-0.0296,-0.021,-0.017,-0.0021,-0.0058,0.0025,0.0095,0.0101,0.0176,0.021,0.026,0.0275,0.0177,0.0176,0.0175,0.0175,0,-0.0535,-0.0577,-0.0627,-0.0638,-0.0648,-0.066,-0.0662,-0.06,-0.0584,-0.05,-0.0473,-0.0353,-0.0292,-0.0177,-0.002,-0.0029,0.0143,0.0154,0.0274,0.0278,0.0306,0.0311,0.0253,0.0253,0.0253,0.0252,0.0252,0,-0.0599,-0.064,-0.0663,-0.0692,-0.0752,-0.0729,-0.0757,-0.0726,-0.0668,-0.0645,-0.053,-0.0474,-0.0294,-0.0165,-0.0036,0.015,0.0137,0.0275,0.0311,0.0277,0.0278,0.0249,0.0247,0.0256,0.0255,0.0254,0.0254,0,-0.066,-0.0669,-0.0738,-0.077,-0.0785,-0.083,-0.0848,-0.0848,-0.0786,-0.0751,-0.0731,-0.0563,-0.0387,-0.0197,0.0014,0.0134,0.0301,0.0369,0.0318,0.0347,0.0404,0.0397,0.0503,0.0506,0.0508,0.0509,0.0511,0,-0.0696,-0.0733,-0.0807,-0.0854,-0.0877,-0.093,-0.0952,-0.0918,-0.0906,-0.0796,-0.0777,-0.0599,-0.0447,-0.0114,0.0126,0.0371,0.0367,0.0483,0.047,0.0407,0.0432,0.0421,0.0412,0.0471,0.0472,0.0473,0.0474,0,-0.0767,-0.0789,-0.0845,-0.094,-0.0995,-0.1049,-0.1075,-0.1079,-0.101,-0.0952,-0.0821,-0.0692,-0.0359,-0.0064,0.0255,0.0387,0.0441,0.0509,0.0469,0.0411,0.0386,0.0406,0.0397,0.0481,0.048,0.048,0.048,0.0479,-0.0815,-0.0879,-0.0944,-0.1033,-0.1094,-0.1139,-0.1163,-0.1142,-0.1107,-0.098,-0.0855,-0.0633,-0.0349,0.0114,0.0345,0.0548,0.0537,0.0587,0.0581,0.0575,0.0553,0.0533,0.0651,0.0651,0.0652,0.0652,0.0652,0,-0.0874,-0.0937,-0.1027,-0.1123,-0.1184,-0.1197,-0.1214,-0.1187,-0.1119,-0.0976,-0.0815,-0.0507,-0.0172,0.0108,0.0449,0.0651,0.0617,0.067,0.0595,0.0588,0.0581,0.0556,0.0657,0.0657,0.0658,0.0658,0,0,-0.0908,-0.1002,-0.1049,-0.1166,-0.1222,-0.1263,-0.1259,-0.1188,-0.1077,-0.0914,-0.0747,-0.0509,-0.0164,0.0079,0.0338,0.0515,0.0491,0.0518,0.0494,0.0369,0.036,0.0516,0.0467,0,0,0,0,0]}],[{"header":{"parameterUnit":"m.s-1","parameterCategory":2,"la1":30.2991,"la2":30.254,"lo1":-89.0895,"lo2":-89.0444,"dy":0.0017,"dx":0.0017,"nx":28,"ny":28,"refTime":"2023-08-28T09:00:00:Z","depth":"4","parameterNumber":2,"parameterNumberName":"U-component_of_CURRENTS"},"data":[0,0,0,0,0,0,0,0,0,0,0,0,0,0,0,0,0,0,0,0,0,0,0,0,0,0,0,0,0,0,0,0,0,0,0,0,0,0,0,0,0,0,0,0,0,0,0,0,0,0,0,0,0,0,0,0,0,0,-0.1671,-0.1672,0,-0.1686,-0.1686,-0.1685,-0.1686,-0.1687,-0.1687,-0.1688,-0.1631,-0.1629,-0.1627,0,0,0,0,0,0,0,0,0,0,0,0,0,-0.1566,-0.1568,-0.1671,-0.1672,-0.1673,-0.1686,-0.1686,-0.1685,-0.1686,-0.1687,-0.1687,-0.1688,-0.1632,-0.1629,-0.1627,0,0,0,0,0,0,0,0,0,0,0,0,0,-0.1592,-0.1569,-0.1671,-0.1682,-0.1683,-0.1686,-0.1686,-0.1685,-0.1686,-0.1687,-0.1688,-0.1688,-0.1633,-0.163,-0.1627,-0.1589,0,0,-0.1617,-0.1616,0,0,0,0,0,0,0,0,-0.159,-0.1595,-0.1679,-0.1681,-0.1683,-0.1693,-0.1628,-0.1652,-0.1686,-0.1676,-0.1688,-0.1689,-0.165,-0.1645,-0.1635,-0.1587,-0.1584,-0.1617,-0.1615,-0.1614,-0.1613,0,0,0,0,0,0,0,-0.1589,-0.1594,-0.1669,-0.168,-0.1683,-0.1659,-0.1664,-0.1632,-0.165,-0.1677,-0.1679,-0.1694,-0.1649,-0.1638,-0.1634,-0.1583,-0.1617,-0.1614,-0.1612,-0.1611,-0.1576,-0.1577,0,0,0,0,0,0,-0.1607,-0.1593,-0.1668,-0.167,-0.1647,-0.1662,-0.1666,-0.1682,-0.1652,-0.1651,-0.1693,-0.1694,-0.1643,-0.1637,-0.1632,-0.1663,-0.1614,-0.1611,-0.1609,-0.1576,-0.1577,-0.1578,0,0,0,0,0,0,-0.1605,-0.1614,-0.1668,-0.1638,-0.1644,-0.1664,-0.168,-0.1682,-0.1705,-0.1666,-0.1663,-0.1721,-0.1644,-0.1636,-0.1634,-0.1658,-0.1609,-0.1606,-0.1574,-0.1576,-0.1577,-0.1675,0,0,0,0,0,0,-0.1602,-0.1613,-0.1635,-0.1639,-0.1647,-0.1694,-0.1681,-0.1682,-0.1715,-0.1717,-0.1688,-0.1682,-0.1644,-0.1639,-0.1631,-0.1652,-0.1604,-0.1573,-0.1575,-0.1577,-0.167,-0.1679,-0.1687,0,0,0,0,0,-0.1598,-0.1624,-0.1636,-0.1646,-0.1675,-0.1696,-0.1697,-0.1707,-0.1716,-0.173,-0.1714,-0.1685,-0.1644,-0.1637,-0.1627,-0.1649,-0.1572,-0.1575,-0.1577,-0.1667,-0.1677,-0.1687,0,0,0,0,0,0,-0.1587,-0.1627,-0.164,-0.1677,-0.1699,-0.17,-0.172,-0.1729,-0.1727,-0.1736,-0.1694,-0.1686,-0.1693,-0.1657,-0.165,-0.1644,-0.1604,-0.1604,-0.1676,-0.1686,-0.1694,-0.1702,-0.1601,0,0,0,0,0,-0.1598,-0.1631,-0.1659,-0.1691,-0.1708,-0.1721,-0.1735,-0.1746,-0.1747,-0.1749,-0.1729,-0.1706,-0.1687,-0.1679,-0.1652,-0.1647,-0.1635,-0.1654,-0.1663,-0.167,-0.167,-0.1683,-0.1693,-0.1585,-0.1585,-0.1585,0,0,-0.1605,-0.1632,-0.1652,-0.1692,-0.1709,-0.1734,-0.173,-0.1768,-0.1784,-0.174,-0.1755,-0.1736,-0.1693,-0.169,-0.169,-0.1668,-0.1699,-0.1673,-0.168,-0.1676,-0.1686,-0.1697,-0.1707,-0.1586,-0.1586,-0.1586,0,0,-0.1621,-0.1661,-0.1688,-0.1714,-0.1759,-0.1766,-0.1789,-0.1809,-0.1818,-0.1832,-0.1806,-0.1811,-0.1775,-0.1754,-0.1736,-0.1774,-0.1745,-0.1766,-0.1812,-0.1825,-0.1835,-0.1842,-0.1862,-0.1871,-0.1768,-0.1768,-0.1768,0,-0.1629,-0.1669,-0.1698,-0.173,-0.1758,-0.1788,-0.1818,-0.1829,-0.1844,-0.1848,-0.1852,-0.183,-0.1804,-0.1799,-0.1814,-0.1794,-0.1797,-0.178,-0.1838,-0.1845,-0.1852,-0.187,-0.1878,-0.1773,-0.1773,-0.1772,-0.1772,0,-0.1651,-0.17,-0.1722,-0.1772,-0.1799,-0.1839,-0.1865,-0.1887,-0.1908,-0.1913,-0.1931,-0.1909,-0.1892,-0.1893,-0.1865,-0.1893,-0.1881,-0.1852,-0.1817,-0.1869,-0.1884,-0.1891,-0.178,-0.1778,-0.1777,-0.1776,0,0,-0.1631,-0.1721,-0.1734,-0.1768,-0.1832,-0.1853,-0.1889,-0.1918,-0.1942,-0.1964,-0.1989,-0.1979,-0.1981,-0.1962,-0.194,-0.1956,-0.2017,-0.1931,-0.1929,-0.1958,-0.2059,-0.1905,-0.1898,-0.2003,-0.2004,-0.2005,-0.2059,0,-0.1645,-0.1712,-0.1751,-0.1816,-0.1854,-0.1894,-0.1919,-0.195,-0.1976,-0.2004,-0.2011,-0.2024,-0.2002,-0.201,-0.2026,-0.2013,-0.2037,-0.2006,-0.1995,-0.1995,-0.1859,-0.1901,-0.2009,-0.2064,-0.2066,-0.2067,-0.2067,0,-0.1646,-0.1698,-0.1767,-0.1844,-0.1863,-0.1903,-0.1954,-0.1981,-0.2021,-0.2041,-0.2067,-0.2072,-0.2099,-0.208,-0.2104,-0.2087,-0.2083,-0.208,-0.2081,-0.1903,-0.1853,-0.1994,-0.208,-0.2079,-0.2078,-0.2077,-0.2076,0,-0.1605,-0.1703,-0.1762,-0.1794,-0.1882,-0.1913,-0.1951,-0.1995,-0.2024,-0.2072,-0.211,-0.2128,-0.2162,-0.2158,-0.215,-0.2135,-0.2179,-0.2152,-0.2016,-0.2006,-0.2088,-0.2078,-0.2177,-0.2177,-0.2177,-0.2177,-0.2177,0,-0.1591,-0.1642,-0.1758,-0.1791,-0.1855,-0.191,-0.1968,-0.1999,-0.2061,-0.2091,-0.2134,-0.2158,-0.2188,-0.2207,-0.2181,-0.2114,-0.2202,-0.2027,-0.2005,-0.2129,-0.2124,-0.2094,-0.2084,-0.2179,-0.2178,-0.2178,-0.2178,0,-0.1533,-0.1616,-0.1692,-0.1804,-0.1843,-0.1885,-0.1988,-0.2008,-0.2085,-0.2132,-0.2154,-0.2215,-0.2212,-0.2225,-0.2227,-0.2146,-0.2099,-0.2057,-0.2208,-0.2193,-0.1916,-0.1911,-0.1906,-0.1901,-0.1897,-0.1893,-0.189,0,-0.1504,-0.1544,-0.1691,-0.1734,-0.1794,-0.1875,-0.1909,-0.2002,-0.2024,-0.2135,-0.2138,-0.2195,-0.2204,-0.2093,-0.2114,-0.2051,-0.2017,-0.1997,-0.1934,-0.1908,-0.1887,-0.1888,-0.1888,-0.1883,-0.1882,-0.1881,-0.188,0,-0.1442,-0.1513,-0.1572,-0.1666,-0.1731,-0.1793,-0.1858,-0.1875,-0.196,-0.2077,-0.2048,-0.2024,-0.2027,-0.1987,-0.1958,-0.191,-0.2004,-0.1952,-0.196,-0.19,-0.188,-0.1864,-0.1869,-0.1865,-0.1867,-0.1869,-0.1869,0,-0.1388,-0.1415,-0.1497,-0.1558,-0.1641,-0.1654,-0.172,-0.1734,-0.1777,-0.1899,-0.189,-0.1932,-0.201,-0.1916,-0.1884,-0.1822,-0.178,-0.1711,-0.1731,-0.1748,-0.1662,-0.1612,-0.1496,0,0,0,0,0,-0.1317,-0.1319,-0.1371,-0.1425,-0.1497,-0.1536,-0.1642,-0.1704,-0.1821,-0.1746,-0.1808,-0.1782,-0.1724,-0.1755,-0.1649,-0.1804,-0.1789,-0.1674,-0.1722,-0.1782,-0.1799,-0.1708,0,0,0,0,0,0,-0.1265,-0.1308,-0.132,-0.1283,-0.1288,-0.1342,-0.14,-0.1489,-0.1459,-0.1589,-0.1563,-0.1662,-0.163,-0.1741,-0.1604,-0.1611,-0.1602,-0.1714,-0.1708,-0.1772,-0.1788,-0.1802,-0.1714,0,0,0,0,0]},{"header":{"parameterUnit":"m.s-1","parameterCategory":2,"la1":30.2991,"la2":30.254,"lo1":-89.0895,"lo2":-89.0444,"dy":0.0017,"dx":0.0017,"nx":28,"ny":28,"refTime":"2023-08-28T09:00:00:Z","depth":"4","parameterNumber":3,"parameterNumberName":"V-component_of_CURRENTS"},"data":[0,0,0,0,0,0,0,0,0,0,0,0,0,0,0,0,0,0,0,0,0,0,0,0,0,0,0,0,0,0,0,0,0,0,0,0,0,0,0,0,0,0,0,0,0,0,0,0,0,0,0,0,0,0,0,0,0,0,-0.0104,-0.0104,0,-0.0058,-0.0057,-0.0056,-0.0018,-0.0018,-0.0018,-0.0018,0.0078,0.008,0.0082,0,0,0,0,0,0,0,0,0,0,0,0,0,-0.0115,-0.0115,-0.0104,-0.0104,-0.0103,-0.0058,-0.0057,-0.0056,-0.0018,-0.0018,-0.0018,-0.0017,0.0077,0.008,0.0082,0,0,0,0,0,0,0,0,0,0,0,0,0,-0.0092,-0.0115,-0.0104,-0.008,-0.0078,-0.0058,-0.0057,-0.0056,-0.0018,-0.0018,-0.0018,-0.0017,0.0076,0.0079,0.0083,0.0097,0,0,0.0093,0.0095,0,0,0,0,0,0,0,0,-0.0093,-0.0091,-0.0084,-0.0082,-0.0079,-0.0045,-0.0026,-0.0003,-0.0018,-0.0039,-0.0018,-0.0017,0.004,0.0046,0.0056,0.0101,0.0105,0.0094,0.0096,0.0097,0.0098,0,0,0,0,0,0,0,-0.0095,-0.0093,-0.0084,-0.0084,-0.0081,-0.0056,-0.0053,-0.0021,-0.0,-0.0037,-0.0035,-0.0032,0.0042,0.0052,0.0058,0.0106,0.0093,0.0097,0.0099,0.01,0.0155,0.0155,0,0,0,0,0,0,-0.0107,-0.0095,-0.0086,-0.0083,-0.0087,-0.0057,-0.0053,-0.0055,-0.0001,0.0006,-0.0033,-0.0031,0.0046,0.0054,0.0062,0.0077,0.0097,0.01,0.0102,0.0156,0.0155,0.0155,0,0,0,0,0,0,-0.0107,-0.0107,-0.0088,-0.0089,-0.0085,-0.0057,-0.006,-0.0054,-0.0048,0.0001,0.001,-0.0033,0.0047,0.0057,0.0081,0.0082,0.0102,0.0105,0.0157,0.0156,0.0155,0.0111,0,0,0,0,0,0,-0.0108,-0.0107,-0.0115,-0.009,-0.0085,-0.0084,-0.006,-0.0054,-0.0048,-0.0045,0.0004,0.0013,0.0048,0.0075,0.0084,0.0087,0.0108,0.0157,0.0156,0.0155,0.0113,0.0109,0.0105,0,0,0,0,0,-0.0109,-0.0124,-0.0116,-0.0114,-0.0096,-0.0084,-0.008,-0.0057,-0.0048,-0.005,-0.0019,0.0012,0.0075,0.0077,0.0088,0.0092,0.0158,0.0157,0.0155,0.0115,0.011,0.0105,0,0,0,0,0,0,-0.0134,-0.0121,-0.0111,-0.0122,-0.0107,-0.0079,-0.0079,-0.0065,-0.0043,-0.0041,0.0006,0.0018,0.0037,0.0066,0.0068,0.0102,0.0121,0.0121,0.0086,0.0082,0.0078,0.0072,0.0111,0,0,0,0,0,-0.0144,-0.015,-0.0131,-0.0139,-0.0134,-0.0109,-0.0102,-0.0089,-0.0065,-0.0055,-0.0022,0.0012,0.004,0.0061,0.0087,0.011,0.0145,0.0117,0.0113,0.0109,0.011,0.0166,0.0168,0.015,0.015,0.015,0,0,-0.0157,-0.0149,-0.0154,-0.0145,-0.013,-0.0131,-0.0104,-0.0101,-0.0096,-0.0048,-0.0033,-0.0004,0.004,0.0062,0.0074,0.0088,0.0129,0.0107,0.0104,0.0107,0.0165,0.0167,0.0169,0.0149,0.0149,0.015,0,0,-0.0183,-0.0179,-0.0191,-0.0184,-0.0171,-0.0155,-0.0158,-0.0134,-0.0118,-0.0103,-0.0068,-0.0039,0.0001,0.0039,0.0062,0.005,0.01,0.0054,0.004,0.0094,0.0096,0.0099,0.0133,0.0139,0.0059,0.0059,0.0059,0,-0.0199,-0.0213,-0.0193,-0.0201,-0.0202,-0.017,-0.0183,-0.0161,-0.0132,-0.0114,-0.0107,-0.0039,-0.0006,0.0037,0.0028,0.0044,0.0074,0.0057,0.009,0.0093,0.0097,0.0132,0.0139,0.0057,0.0057,0.0057,0.0057,0,-0.023,-0.0244,-0.0251,-0.0251,-0.0247,-0.0256,-0.0227,-0.0212,-0.0191,-0.0162,-0.0123,-0.0076,-0.0031,-0.002,0.0001,0.004,0.0052,0.0074,0.0105,0.0096,0.0133,0.0141,0.0053,0.0054,0.0055,0.0056,0,0,-0.0262,-0.0272,-0.0277,-0.029,-0.0278,-0.0281,-0.0266,-0.0241,-0.0226,-0.0186,-0.0158,-0.0109,-0.0075,-0.0048,-0.001,0.0035,0.0077,0.0058,0.0062,0.0095,0.0184,0.0166,0.0174,0.0107,0.0108,0.011,0.0196,0,-0.0294,-0.033,-0.032,-0.0353,-0.0371,-0.0338,-0.0327,-0.0296,-0.0257,-0.022,-0.0151,-0.0118,-0.0086,-0.0068,-0.0015,0.0053,0.0099,0.0051,0.0185,0.0189,0.0178,0.0184,0.0114,0.0202,0.0204,0.0206,0.0207,0,-0.0329,-0.035,-0.0391,-0.0407,-0.041,-0.0423,-0.0399,-0.0383,-0.031,-0.0275,-0.0213,-0.0158,-0.0087,-0.0064,0.0067,0.0035,0.0101,0.0157,0.0162,0.0169,0.0187,0.0217,0.0223,0.0222,0.0221,0.0219,0.0219,0,-0.0368,-0.0401,-0.0439,-0.0447,-0.0453,-0.0462,-0.046,-0.0406,-0.039,-0.0311,-0.0291,-0.0182,-0.0141,-0.0031,0.008,0.0077,0.0222,0.0239,0.0289,0.0288,0.0299,0.0296,0.0333,0.0333,0.0333,0.0333,0.0332,0,-0.0408,-0.0441,-0.0469,-0.0493,-0.0539,-0.0517,-0.0537,-0.0505,-0.0454,-0.0435,-0.0332,-0.029,-0.0132,-0.003,0.0078,0.0205,0.0228,0.0288,0.0314,0.0275,0.0268,0.0305,0.03,0.0336,0.0335,0.0335,0.0334,0,-0.0447,-0.0461,-0.0517,-0.0547,-0.0565,-0.0601,-0.062,-0.0617,-0.056,-0.0531,-0.0512,-0.0371,-0.0229,-0.0073,0.0109,0.0187,0.032,0.036,0.0293,0.0314,0.0351,0.0343,0.0429,0.0429,0.0429,0.043,0.043,0,-0.0468,-0.0499,-0.0573,-0.0619,-0.0645,-0.0692,-0.0715,-0.0681,-0.0669,-0.0578,-0.0562,-0.0423,-0.0316,-0.0064,0.0095,0.031,0.0335,0.0394,0.0384,0.0346,0.0363,0.0355,0.0347,0.043,0.043,0.043,0.043,0,-0.0511,-0.0541,-0.0588,-0.0686,-0.0743,-0.0791,-0.0819,-0.0816,-0.0752,-0.0715,-0.0583,-0.0434,-0.0273,-0.0064,0.0098,0.025,0.0353,0.0396,0.0397,0.0388,0.0348,0.0363,0.0355,0.0431,0.0431,0.043,0.043,0,-0.0544,-0.0596,-0.0662,-0.0744,-0.0818,-0.0856,-0.0869,-0.0833,-0.0806,-0.0687,-0.0648,-0.045,-0.0327,-0.0096,0.0056,0.0204,0.024,0.0277,0.0285,0.0286,0.0216,0.0142,0.0187,0,0,0,0,0,-0.057,-0.063,-0.0712,-0.0798,-0.0866,-0.0899,-0.0914,-0.0899,-0.0846,-0.0758,-0.0692,-0.0529,-0.027,-0.015,-0.0003,0.0038,0.0243,0.0211,0.0284,0.0434,0.0433,0.0374,0,0,0,0,0,0,-0.0592,-0.0674,-0.0716,-0.0813,-0.0871,-0.0933,-0.0938,-0.0902,-0.0832,-0.0757,-0.061,-0.0518,-0.0262,-0.0356,-0.0008,0.0037,0.0097,0.0339,0.0341,0.0434,0.0433,0.0433,0.0372,0,0,0,0,0]}]]